| time (UTC) | temp C | wind direction | speed KPH | gust KPH | rain 1hr cm | rain 24hr cm | rain mn cm | humidity % | barometer mb |
| 20260510131004 | 17 | 15 | 11.3 | 25.7 | 0.00 | 0.00 | 0.00 | 61 | 1015.4 |
| 20260510130502 | 17 | 12 | 11.3 | 32.2 | 0.00 | 0.00 | 0.00 | 61 | 1015.5 |
| 20260510130001 | 17 | 9 | 12.9 | 32.2 | 0.00 | 0.00 | 0.00 | 61 | 1015.6 |
| 20260510125502 | 17 | 7 | 12.9 | 25.7 | 0.00 | 0.00 | 0.00 | 60 | 1015.6 |
| 20260510125001 | 17 | 6 | 11.3 | 25.7 | 0.00 | 0.00 | 0.00 | 59 | 1015.7 |
| 20260510124501 | 17 | 8 | 9.7 | 24.1 | 0.00 | 0.00 | 0.00 | 60 | 1015.7 |
| 20260510124001 | 17 | 5 | 12.9 | 22.5 | 0.00 | 0.00 | 0.00 | 59 | 1015.9 |
| 20260510123502 | 17 | 7 | 11.3 | 22.5 | 0.00 | 0.00 | 0.00 | 60 | 1015.8 |
| 20260510123002 | 17 | 15 | 9.7 | 19.3 | 0.00 | 0.00 | 0.00 | 60 | 1015.7 |
| 20260510122501 | 17 | 15 | 9.7 | 24.1 | 0.00 | 0.00 | 0.00 | 59 | 1015.8 |
| 20260510122023 | 17 | 10 | 9.7 | 24.1 | 0.00 | 0.00 | 0.00 | 60 | 1015.8 |
| 20260510121502 | 17 | 12 | 9.7 | 22.5 | 0.00 | 0.00 | 0.00 | 59 | 1016.0 |
| 20260510121001 | 17 | 24 | 9.7 | 22.5 | 0.00 | 0.00 | 0.00 | 59 | 1016.0 |
| 20260510120502 | 17 | 30 | 9.7 | 22.5 | 0.00 | 0.00 | 0.00 | 57 | 1016.0 |
| 20260510120001 | 18 | 32 | 9.7 | 22.5 | 0.00 | 0.00 | 0.00 | 58 | 1016.1 |
| 20260510115501 | 18 | 28 | 8.0 | 22.5 | 0.00 | 0.00 | 0.00 | 57 | 1016.2 |
| 20260510115023 | 17 | 23 | 8.0 | 20.9 | 0.00 | 0.00 | 0.00 | 60 | 1016.1 |
| 20260510114501 | 17 | 16 | 9.7 | 24.1 | 0.00 | 0.00 | 0.00 | 60 | 1016.2 |
| 20260510114023 | 17 | 12 | 9.7 | 24.1 | 0.00 | 0.00 | 0.00 | 59 | 1016.1 |
| 20260510113501 | 17 | 13 | 9.7 | 29.0 | 0.00 | 0.00 | 0.00 | 60 | 1016.2 |
| 20260510113002 | 18 | 11 | 11.3 | 29.0 | 0.00 | 0.00 | 0.00 | 58 | 1016.2 |
| 20260510112501 | 18 | 11 | 9.7 | 27.4 | 0.00 | 0.00 | 0.00 | 57 | 1016.2 |
| 20260510112002 | 18 | 10 | 11.3 | 29.0 | 0.00 | 0.00 | 0.00 | 56 | 1016.3 |
| 20260510111523 | 18 | 6 | 14.5 | 35.4 | 0.00 | 0.00 | 0.00 | 55 | 1016.4 |
| 20260510111001 | 19 | 6 | 14.5 | 35.4 | 0.00 | 0.00 | 0.00 | 54 | 1016.3 |
| 20260510110501 | 19 | 359 | 12.9 | 33.8 | 0.00 | 0.00 | 0.00 | 55 | 1016.4 |
| 20260510110002 | 19 | 360 | 11.3 | 27.4 | 0.00 | 0.00 | 0.00 | 57 | 1016.3 |
| 20260510105523 | 18 | 14 | 9.7 | 24.1 | 0.00 | 0.00 | 0.00 | 57 | 1016.4 |
| 20260510105002 | 18 | 16 | 11.3 | 25.7 | 0.00 | 0.00 | 0.00 | 58 | 1016.5 |
| 20260510104501 | 18 | 19 | 11.3 | 25.7 | 0.00 | 0.00 | 0.00 | 57 | 1016.6 |
| 20260510104001 | 17 | 26 | 9.7 | 22.5 | 0.00 | 0.00 | 0.00 | 60 | 1016.7 |
| 20260510103502 | 17 | 17 | 12.9 | 33.8 | 0.00 | 0.00 | 0.00 | 59 | 1016.8 |
| 20260510103001 | 16 | 12 | 14.5 | 33.8 | 0.00 | 0.00 | 0.00 | 59 | 1016.9 |
| 20260510102502 | 16 | 9 | 14.5 | 35.4 | 0.00 | 0.00 | 0.00 | 62 | 1016.6 |
| 20260510102002 | 16 | 9 | 14.5 | 35.4 | 0.00 | 0.00 | 0.00 | 63 | 1016.6 |
| 20260510101502 | 16 | 10 | 14.5 | 29.0 | 0.00 | 0.00 | 0.00 | 63 | 1016.7 |
| 20260510101022 | 16 | 11 | 14.5 | 33.8 | 0.00 | 0.00 | 0.00 | 64 | 1016.8 |
| 20260510100502 | 15 | 14 | 14.5 | 33.8 | 0.00 | 0.00 | 0.00 | 64 | 1016.8 |
| 20260510100002 | 15 | 19 | 12.9 | 30.6 | 0.00 | 0.00 | 0.00 | 65 | 1016.9 |
| 20260510095502 | 15 | 24 | 12.9 | 32.2 | 0.00 | 0.00 | 0.00 | 65 | 1016.8 |
| 20260510095002 | 15 | 17 | 12.9 | 32.2 | 0.00 | 0.00 | 0.00 | 64 | 1016.9 |
| 20260510094501 | 16 | 5 | 14.5 | 35.4 | 0.00 | 0.00 | 0.00 | 64 | 1017.0 |
| 20260510094001 | 16 | 2 | 16.1 | 35.4 | 0.00 | 0.00 | 0.00 | 66 | 1016.9 |
| 20260510093501 | 15 | 10 | 12.9 | 27.4 | 0.00 | 0.00 | 0.00 | 66 | 1016.8 |
| 20260510093002 | 15 | 20 | 11.3 | 30.6 | 0.00 | 0.00 | 0.00 | 67 | 1016.8 |
| 20260510092502 | 15 | 16 | 12.9 | 30.6 | 0.00 | 0.00 | 0.00 | 68 | 1016.8 |
| 20260510092002 | 15 | 9 | 14.5 | 41.8 | 0.00 | 0.00 | 0.00 | 69 | 1016.9 |
| 20260510091522 | 14 | 7 | 14.5 | 41.8 | 0.00 | 0.00 | 0.00 | 69 | 1016.9 |
| 20260510091023 | 14 | 8 | 14.5 | 29.0 | 0.00 | 0.00 | 0.00 | 70 | 1017.1 |
| 20260510090502 | 13 | 9 | 12.9 | 27.4 | 0.00 | 0.00 | 0.00 | 70 | 1017.0 |
| 20260510090022 | 13 | 11 | 12.9 | 35.4 | 0.00 | 0.00 | 0.00 | 70 | 1016.9 |
| 20260510085501 | 13 | 16 | 14.5 | 35.4 | 0.00 | 0.00 | 0.00 | 70 | 1017.1 |
| 20260510085002 | 13 | 11 | 12.9 | 32.2 | 0.00 | 0.00 | 0.00 | 71 | 1017.0 |
| 20260510084523 | 13 | 6 | 12.9 | 32.2 | 0.00 | 0.00 | 0.00 | 71 | 1017.0 |
| 20260510084002 | 13 | 5 | 14.5 | 32.2 | 0.00 | 0.00 | 0.00 | 70 | 1017.1 |
| 20260510083501 | 13 | 8 | 14.5 | 32.2 | 0.00 | 0.00 | 0.00 | 71 | 1016.9 |
| 20260510083001 | 13 | 12 | 14.5 | 33.8 | 0.00 | 0.00 | 0.00 | 71 | 1017.0 |
| 20260510082502 | 13 | 9 | 14.5 | 37.0 | 0.00 | 0.00 | 0.00 | 72 | 1017.2 |
| 20260510082002 | 13 | 6 | 14.5 | 37.0 | 0.00 | 0.00 | 0.00 | 72 | 1017.1 |
| 20260510081502 | 12 | 6 | 12.9 | 30.6 | 0.00 | 0.00 | 0.00 | 72 | 1017.1 |
| 20260510081001 | 12 | 9 | 12.9 | 33.8 | 0.00 | 0.00 | 0.00 | 73 | 1017.1 |
| 20260510080523 | 12 | 8 | 14.5 | 35.4 | 0.00 | 0.00 | 0.00 | 73 | 1017.0 |
| 20260510080002 | 12 | 4 | 14.5 | 35.4 | 0.00 | 0.00 | 0.00 | 74 | 1017.2 |
| 20260510075502 | 12 | 8 | 12.9 | 27.4 | 0.00 | 0.00 | 0.00 | 74 | 1017.1 |
| 20260510075002 | 12 | 6 | 14.5 | 30.6 | 0.00 | 0.00 | 0.00 | 74 | 1017.1 |
| 20260510074502 | 12 | 7 | 14.5 | 30.6 | 0.00 | 0.00 | 0.00 | 74 | 1017.1 |
| 20260510074001 | 11 | 7 | 12.9 | 35.4 | 0.00 | 0.00 | 0.00 | 74 | 1017.1 |
| 20260510073522 | 11 | 10 | 11.3 | 35.4 | 0.00 | 0.00 | 0.00 | 74 | 1017.2 |
| 20260510073002 | 11 | 15 | 11.3 | 27.4 | 0.00 | 0.00 | 0.00 | 75 | 1017.3 |
| 20260510072502 | 11 | 16 | 11.3 | 27.4 | 0.00 | 0.00 | 0.00 | 75 | 1017.2 |
| 20260510072002 | 11 | 16 | 11.3 | 25.7 | 0.00 | 0.00 | 0.00 | 75 | 1017.1 |
| 20260510071502 | 11 | 8 | 12.9 | 25.7 | 0.00 | 0.00 | 0.00 | 76 | 1017.2 |
| 20260510071001 | 11 | 6 | 12.9 | 24.1 | 0.00 | 0.00 | 0.00 | 76 | 1017.4 |
| 20260510070501 | 11 | 14 | 11.3 | 24.1 | 0.00 | 0.00 | 0.00 | 77 | 1017.2 |
| 20260510070001 | 11 | 17 | 11.3 | 24.1 | 0.00 | 0.00 | 0.00 | 77 | 1017.2 |
| 20260510065502 | 10 | 17 | 11.3 | 24.1 | 0.00 | 0.00 | 0.00 | 77 | 1017.1 |
| 20260510065002 | 10 | 13 | 11.3 | 32.2 | 0.00 | 0.00 | 0.00 | 78 | 1017.0 |
| 20260510064523 | 10 | 12 | 12.9 | 32.2 | 0.00 | 0.00 | 0.00 | 77 | 1017.0 |
| 20260510064001 | 10 | 13 | 11.3 | 25.7 | 0.00 | 0.00 | 0.00 | 77 | 1016.9 |
| 20260510063502 | 10 | 13 | 11.3 | 29.0 | 0.00 | 0.00 | 0.00 | 77 | 1016.8 |
| 20260510063002 | 10 | 11 | 11.3 | 29.0 | 0.00 | 0.00 | 0.00 | 77 | 1016.7 |
| 20260510062502 | 10 | 11 | 11.3 | 27.4 | 0.00 | 0.00 | 0.00 | 77 | 1016.8 |
| 20260510062023 | 10 | 12 | 9.7 | 24.1 | 0.00 | 0.00 | 0.00 | 77 | 1016.9 |
| 20260510061502 | 10 | 10 | 11.3 | 27.4 | 0.00 | 0.00 | 0.00 | 77 | 1016.9 |
| 20260510061023 | 10 | 9 | 12.9 | 27.4 | 0.00 | 0.00 | 0.00 | 77 | 1016.9 |
| 20260510060502 | 10 | 11 | 11.3 | 27.4 | 0.00 | 0.00 | 0.00 | 77 | 1016.9 |
| 20260510060002 | 10 | 12 | 11.3 | 27.4 | 0.00 | 0.00 | 0.00 | 77 | 1016.9 |
| 20260510055523 | 10 | 10 | 11.3 | 30.6 | 0.00 | 0.00 | 0.00 | 77 | 1016.8 |
| 20260510055002 | 10 | 11 | 11.3 | 30.6 | 0.00 | 0.00 | 0.00 | 77 | 1016.8 |
| 20260510054523 | 10 | 13 | 11.3 | 29.0 | 0.00 | 0.00 | 0.00 | 77 | 1016.7 |
| 20260510054002 | 10 | 11 | 9.7 | 27.4 | 0.00 | 0.00 | 0.00 | 77 | 1016.7 |
| 20260510053502 | 10 | 8 | 11.3 | 25.7 | 0.00 | 0.00 | 0.00 | 77 | 1016.7 |
| 20260510053002 | 10 | 10 | 12.9 | 27.4 | 0.00 | 0.00 | 0.00 | 77 | 1016.8 |
| 20260510052502 | 10 | 8 | 12.9 | 30.6 | 0.00 | 0.00 | 0.00 | 77 | 1016.7 |
| 20260510052001 | 10 | 5 | 12.9 | 30.6 | 0.00 | 0.00 | 0.00 | 76 | 1016.8 |
| 20260510051502 | 10 | 6 | 12.9 | 29.0 | 0.00 | 0.00 | 0.00 | 76 | 1016.7 |
| 20260510051002 | 10 | 9 | 11.3 | 29.0 | 0.00 | 0.00 | 0.00 | 76 | 1016.9 |
| 20260510050502 | 10 | 9 | 11.3 | 25.7 | 0.00 | 0.00 | 0.00 | 76 | 1016.9 |
| 20260510050002 | 10 | 8 | 11.3 | 27.4 | 0.00 | 0.00 | 0.00 | 76 | 1016.8 |
| 20260510045502 | 10 | 10 | 11.3 | 27.4 | 0.00 | 0.00 | 0.00 | 75 | 1016.8 |
| 20260510045023 | 10 | 10 | 12.9 | 25.7 | 0.00 | 0.00 | 0.00 | 75 | 1016.8 |
| 20260510044502 | 10 | 9 | 12.9 | 29.0 | 0.00 | 0.00 | 0.00 | 75 | 1016.8 |
| 20260510044002 | 10 | 7 | 12.9 | 29.0 | 0.00 | 0.00 | 0.00 | 75 | 1016.6 |
| 20260510043523 | 10 | 7 | 12.9 | 24.1 | 0.00 | 0.00 | 0.00 | 75 | 1016.5 |
| 20260510043002 | 10 | 13 | 9.7 | 25.7 | 0.00 | 0.00 | 0.00 | 75 | 1016.6 |
| 20260510042523 | 10 | 12 | 9.7 | 25.7 | 0.00 | 0.00 | 0.00 | 75 | 1016.6 |
| 20260510042023 | 10 | 13 | 9.7 | 24.1 | 0.00 | 0.00 | 0.00 | 74 | 1016.5 |
| 20260510041502 | 10 | 14 | 11.3 | 25.7 | 0.00 | 0.00 | 0.00 | 74 | 1016.5 |
| 20260510041002 | 10 | 8 | 11.3 | 25.7 | 0.00 | 0.00 | 0.00 | 74 | 1016.6 |
| 20260510040502 | 10 | 6 | 11.3 | 27.4 | 0.00 | 0.00 | 0.00 | 74 | 1016.6 |
| 20260510040002 | 10 | 6 | 12.9 | 29.0 | 0.00 | 0.00 | 0.00 | 74 | 1016.7 |
| 20260510035502 | 10 | 8 | 12.9 | 29.0 | 0.00 | 0.00 | 0.00 | 74 | 1016.7 |
| 20260510035002 | 11 | 12 | 12.9 | 27.4 | 0.00 | 0.00 | 0.00 | 73 | 1016.9 |
| 20260510034523 | 11 | 11 | 11.3 | 27.4 | 0.00 | 0.00 | 0.00 | 73 | 1017.0 |
| 20260510034002 | 11 | 7 | 9.7 | 25.7 | 0.00 | 0.00 | 0.00 | 73 | 1016.9 |
| 20260510033502 | 11 | 9 | 11.3 | 24.1 | 0.00 | 0.00 | 0.00 | 72 | 1016.9 |
| 20260510033002 | 11 | 12 | 11.3 | 24.1 | 0.00 | 0.00 | 0.00 | 72 | 1017.0 |
| 20260510032523 | 11 | 16 | 9.7 | 24.1 | 0.00 | 0.00 | 0.00 | 72 | 1017.1 |
| 20260510032002 | 11 | 10 | 9.7 | 22.5 | 0.00 | 0.00 | 0.00 | 71 | 1017.2 |
| 20260510031502 | 11 | 9 | 9.7 | 22.5 | 0.00 | 0.00 | 0.00 | 71 | 1017.3 |
| 20260510031023 | 11 | 13 | 8.0 | 20.9 | 0.00 | 0.00 | 0.00 | 70 | 1017.3 |
| 20260510030523 | 11 | 10 | 9.7 | 24.1 | 0.00 | 0.00 | 0.00 | 69 | 1017.2 |
| 20260510030002 | 11 | 11 | 9.7 | 24.1 | 0.00 | 0.00 | 0.00 | 69 | 1017.2 |
| 20260510025502 | 11 | 13 | 9.7 | 22.5 | 0.00 | 0.00 | 0.00 | 68 | 1017.2 |
| 20260510025002 | 12 | 13 | 9.7 | 22.5 | 0.00 | 0.00 | 0.00 | 68 | 1017.3 |
| 20260510024523 | 12 | 18 | 8.0 | 25.7 | 0.00 | 0.00 | 0.00 | 67 | 1017.2 |
| 20260510024002 | 12 | 13 | 8.0 | 25.7 | 0.00 | 0.00 | 0.00 | 67 | 1017.2 |
| 20260510023502 | 12 | 8 | 9.7 | 25.7 | 0.00 | 0.00 | 0.00 | 67 | 1017.1 |
| 20260510023002 | 12 | 8 | 12.9 | 30.6 | 0.00 | 0.00 | 0.00 | 67 | 1017.1 |
| 20260510022502 | 12 | 6 | 12.9 | 30.6 | 0.00 | 0.00 | 0.00 | 66 | 1017.1 |
| 20260510022023 | 12 | 2 | 11.3 | 25.7 | 0.00 | 0.00 | 0.00 | 67 | 1017.0 |
| 20260510021502 | 12 | 4 | 9.7 | 25.7 | 0.00 | 0.00 | 0.00 | 66 | 1017.1 |
| 20260510021023 | 12 | 3 | 8.0 | 20.9 | 0.00 | 0.00 | 0.00 | 65 | 1017.1 |
| 20260510020502 | 13 | 7 | 8.0 | 20.9 | 0.00 | 0.00 | 0.00 | 65 | 1017.0 |
| 20260510020002 | 13 | 10 | 8.0 | 19.3 | 0.00 | 0.00 | 0.00 | 64 | 1017.0 |
| 20260510015523 | 13 | 7 | 8.0 | 17.7 | 0.00 | 0.00 | 0.00 | 63 | 1017.2 |
| 20260510015002 | 13 | 10 | 9.7 | 25.7 | 0.00 | 0.00 | 0.00 | 62 | 1017.1 |
| 20260510014502 | 13 | 4 | 9.7 | 25.7 | 0.00 | 0.00 | 0.00 | 62 | 1017.1 |
| 20260510014002 | 13 | 3 | 9.7 | 22.5 | 0.00 | 0.00 | 0.00 | 62 | 1017.0 |
| 20260510013502 | 13 | 12 | 9.7 | 24.1 | 0.00 | 0.00 | 0.00 | 61 | 1016.9 |
| 20260510013002 | 13 | 12 | 11.3 | 24.1 | 0.00 | 0.00 | 0.00 | 61 | 1016.9 |
| 20260510012502 | 13 | 8 | 9.7 | 25.7 | 0.00 | 0.00 | 0.00 | 61 | 1016.9 |
| 20260510012002 | 13 | 12 | 9.7 | 25.7 | 0.00 | 0.00 | 0.00 | 61 | 1017.0 |
| 20260510011523 | 13 | 12 | 9.7 | 25.7 | 0.00 | 0.00 | 0.00 | 61 | 1016.9 |
| 20260510011002 | 13 | 11 | 11.3 | 24.1 | 0.00 | 0.00 | 0.00 | 60 | 1016.9 |
| 20260510010502 | 13 | 10 | 9.7 | 24.1 | 0.00 | 0.00 | 0.00 | 60 | 1017.0 |
| 20260510010023 | 13 | 10 | 9.7 | 24.1 | 0.00 | 0.00 | 0.00 | 61 | 1017.0 |
| 20260510005502 | 13 | 8 | 8.0 | 17.7 | 0.00 | 0.00 | 0.00 | 61 | 1017.1 |
| 20260510005002 | 13 | 9 | 9.7 | 24.1 | 0.00 | 0.00 | 0.00 | 61 | 1017.1 |
| 20260510004502 | 13 | 6 | 9.7 | 24.1 | 0.00 | 0.00 | 0.00 | 60 | 1017.2 |
| 20260510004023 | 13 | 8 | 8.0 | 19.3 | 0.00 | 0.00 | 0.00 | 61 | 1017.2 |
| 20260510003502 | 13 | 19 | 6.4 | 19.3 | 0.00 | 0.00 | 0.00 | 61 | 1017.2 |
| 20260510003003 | 13 | 7 | 8.0 | 20.9 | 0.00 | 0.00 | 0.00 | 61 | 1017.2 |
| 20260510002502 | 13 | 1 | 8.0 | 20.9 | 0.00 | 0.00 | 0.00 | 62 | 1017.2 |
| 20260510002002 | 13 | 8 | 6.4 | 19.3 | 0.00 | 0.00 | 0.00 | 64 | 1017.1 |
| 20260510001523 | 13 | 6 | 8.0 | 19.3 | 0.00 | 0.00 | 0.00 | 64 | 1017.1 |
| 20260510001002 | 13 | 4 | 8.0 | 20.9 | 0.00 | 0.00 | 0.00 | 65 | 1017.1 |
| 20260510000502 | 13 | 5 | 8.0 | 20.9 | 0.00 | 0.00 | 0.00 | 65 | 1017.1 |
| 20260510000002 | 13 | 2 | 8.0 | 19.3 | 0.00 | 0.00 | 0.00 | 65 | 1017.2 |
| 20260509235502 | 13 | 359 | 6.4 | 19.3 | 0.00 | 0.00 | 0.00 | 66 | 1017.2 |
| 20260509235002 | 13 | 1 | 6.4 | 16.1 | 0.00 | 0.00 | 0.00 | 66 | 1017.3 |
| 20260509234502 | 13 | 11 | 4.8 | 14.5 | 0.00 | 0.00 | 0.00 | 65 | 1017.4 |
| 20260509234002 | 13 | 18 | 4.8 | 9.7 | 0.00 | 0.00 | 0.00 | 64 | 1017.4 |
| 20260509233523 | 13 | 23 | 3.2 | 9.7 | 0.00 | 0.00 | 0.00 | 64 | 1017.3 |
| 20260509233002 | 13 | 21 | 3.2 | 14.5 | 0.00 | 0.00 | 0.00 | 65 | 1017.1 |
| 20260509232502 | 13 | 19 | 3.2 | 14.5 | 0.00 | 0.00 | 0.00 | 65 | 1016.9 |
| 20260509232002 | 13 | 25 | 3.2 | 9.7 | 0.00 | 0.00 | 0.00 | 66 | 1016.9 |
| 20260509231502 | 13 | 37 | 3.2 | 14.5 | 0.00 | 0.00 | 0.00 | 67 | 1017.0 |
| 20260509231023 | 13 | 33 | 3.2 | 14.5 | 0.00 | 0.00 | 0.00 | 67 | 1016.9 |
| 20260509230502 | 13 | 31 | 3.2 | 12.9 | 0.00 | 0.00 | 0.00 | 68 | 1016.9 |
| 20260509230002 | 13 | 38 | 3.2 | 9.7 | 0.00 | 0.00 | 0.00 | 69 | 1016.9 |
| 20260509225502 | 13 | 32 | 4.8 | 9.7 | 0.00 | 0.00 | 0.00 | 69 | 1016.9 |
| 20260509225002 | 13 | 21 | 4.8 | 12.9 | 0.00 | 0.00 | 0.00 | 70 | 1016.9 |
| 20260509224502 | 13 | 16 | 4.8 | 12.9 | 0.00 | 0.00 | 0.00 | 70 | 1016.8 |
| 20260509224002 | 13 | 16 | 3.2 | 12.9 | 0.00 | 0.00 | 0.00 | 71 | 1016.8 |
| 20260509223523 | 13 | 21 | 1.6 | 8.0 | 0.00 | 0.00 | 0.00 | 71 | 1016.5 |
| 20260509223002 | 13 | 28 | 1.6 | 9.7 | 0.00 | 0.00 | 0.00 | 71 | 1016.5 |
| 20260509222502 | 13 | 24 | 3.2 | 9.7 | 0.00 | 0.00 | 0.00 | 71 | 1016.6 |
| 20260509222002 | 13 | 20 | 3.2 | 8.0 | 0.00 | 0.00 | 0.00 | 72 | 1016.6 |
| 20260509221502 | 13 | 29 | 1.6 | 6.4 | 0.00 | 0.00 | 0.00 | 72 | 1016.6 |
| 20260509221002 | 13 | 39 | 1.6 | 4.8 | 0.00 | 0.00 | 0.00 | 72 | 1016.7 |
| 20260509220502 | 13 | 34 | 1.6 | 6.4 | 0.00 | 0.00 | 0.00 | 72 | 1016.7 |
| 20260509220002 | 13 | 47 | 3.2 | 11.3 | 0.00 | 0.00 | 0.00 | 72 | 1016.6 |
| 20260509215502 | 13 | 45 | 3.2 | 11.3 | 0.00 | 0.00 | 0.00 | 72 | 1016.6 |
| 20260509215002 | 14 | 35 | 3.2 | 6.4 | 0.00 | 0.00 | 0.00 | 72 | 1016.5 |
| 20260509214523 | 14 | 25 | 3.2 | 9.7 | 0.00 | 0.00 | 0.00 | 72 | 1016.5 |
| 20260509214002 | 14 | 8 | 3.2 | 9.7 | 0.00 | 0.00 | 0.00 | 72 | 1016.4 |
| 20260509213502 | 13 | 10 | 3.2 | 8.0 | 0.00 | 0.00 | 0.00 | 72 | 1016.4 |
| 20260509213002 | 14 | 25 | 3.2 | 8.0 | 0.00 | 0.00 | 0.00 | 72 | 1016.5 |
| 20260509212523 | 14 | 31 | 1.6 | 4.8 | 0.00 | 0.00 | 0.00 | 72 | 1016.3 |
| 20260509212002 | 14 | 11 | 1.6 | 6.4 | 0.00 | 0.00 | 0.00 | 72 | 1016.4 |
| 20260509211502 | 14 | 16 | 3.2 | 6.4 | 0.00 | 0.00 | 0.00 | 72 | 1016.3 |
| 20260509211002 | 14 | 28 | 1.6 | 4.8 | 0.00 | 0.00 | 0.00 | 72 | 1016.3 |
| 20260509210502 | 14 | 37 | 1.6 | 4.8 | 0.00 | 0.00 | 0.00 | 72 | 1016.3 |
| 20260509210002 | 14 | 19 | 1.6 | 4.8 | 0.00 | 0.00 | 0.00 | 72 | 1016.3 |
| 20260509205523 | 14 | 357 | 3.2 | 6.4 | 0.00 | 0.00 | 0.00 | 72 | 1016.2 |
| 20260509205023 | 14 | 345 | 1.6 | 6.4 | 0.00 | 0.00 | 0.00 | 72 | 1016.2 |
| 20260509204502 | 14 | 329 | 0.0 | 3.2 | 0.00 | 0.00 | 0.00 | 72 | 1016.0 |
| 20260509204002 | 14 | 329 | 1.6 | 4.8 | 0.00 | 0.00 | 0.00 | 72 | 1016.0 |
| 20260509203523 | 14 | 326 | 3.2 | 6.4 | 0.00 | 0.00 | 0.00 | 71 | 1015.9 |
| 20260509203002 | 14 | 319 | 1.6 | 6.4 | 0.00 | 0.00 | 0.00 | 71 | 1015.9 |
| 20260509202502 | 15 | 291 | 1.6 | 4.8 | 0.00 | 0.00 | 0.00 | 70 | 1015.9 |
| 20260509202002 | 15 | 242 | 0.0 | 3.2 | 0.00 | 0.00 | 0.00 | 70 | 1016.0 |
| 20260509201502 | 15 | 0 | 0.0 | 0.0 | 0.00 | 0.00 | 0.00 | 70 | 1015.9 |
| 20260509201002 | 15 | 206 | 0.0 | 1.6 | 0.00 | 0.00 | 0.00 | 70 | 1015.9 |
| 20260509200502 | 15 | 206 | 0.0 | 1.6 | 0.00 | 0.00 | 0.00 | 70 | 1016.0 |
| 20260509200003 | 15 | 206 | 0.0 | 1.6 | 0.00 | 0.00 | 0.00 | 69 | 1016.0 |
| 20260509195502 | 15 | 206 | 0.0 | 1.6 | 0.00 | 0.00 | 0.00 | 69 | 1016.1 |
| 20260509195002 | 16 | 205 | 0.0 | 3.2 | 0.00 | 0.00 | 0.00 | 68 | 1016.1 |
| 20260509194502 | 16 | 205 | 0.0 | 3.2 | 0.00 | 0.00 | 0.00 | 68 | 1016.1 |
| 20260509194002 | 16 | 205 | 0.0 | 1.6 | 0.00 | 0.00 | 0.00 | 68 | 1016.1 |
| 20260509193502 | 16 | 205 | 0.0 | 1.6 | 0.00 | 0.00 | 0.00 | 68 | 1016.0 |
| 20260509193002 | 16 | 206 | 0.0 | 1.6 | 0.00 | 0.00 | 0.00 | 67 | 1015.9 |
| 20260509192502 | 16 | 206 | 0.0 | 3.2 | 0.00 | 0.00 | 0.00 | 67 | 1015.9 |
| 20260509192002 | 17 | 205 | 0.0 | 3.2 | 0.00 | 0.00 | 0.00 | 66 | 1015.9 |
| 20260509191502 | 17 | 0 | 0.0 | 0.0 | 0.00 | 0.00 | 0.00 | 67 | 1016.0 |
| 20260509191002 | 17 | 204 | 0.0 | 4.8 | 0.00 | 0.00 | 0.00 | 67 | 1015.9 |
| 20260509190502 | 17 | 197 | 1.6 | 4.8 | 0.00 | 0.00 | 0.00 | 66 | 1015.9 |
| 20260509190002 | 17 | 192 | 1.6 | 4.8 | 0.00 | 0.00 | 0.00 | 65 | 1015.9 |
| 20260509185503 | 17 | 192 | 1.6 | 4.8 | 0.00 | 0.00 | 0.00 | 65 | 1015.9 |
| 20260509185002 | 17 | 189 | 0.0 | 1.6 | 0.00 | 0.00 | 0.00 | 65 | 1015.8 |
| 20260509184502 | 17 | 188 | 0.0 | 1.6 | 0.00 | 0.00 | 0.00 | 65 | 1015.9 |
| 20260509184002 | 17 | 188 | 0.0 | 1.6 | 0.00 | 0.00 | 0.00 | 63 | 1015.9 |
| 20260509183502 | 18 | 188 | 0.0 | 1.6 | 0.00 | 0.00 | 0.00 | 62 | 1015.9 |
| 20260509183002 | 18 | 188 | 0.0 | 1.6 | 0.00 | 0.00 | 0.00 | 62 | 1016.0 |
| 20260509182503 | 18 | 188 | 1.6 | 4.8 | 0.00 | 0.00 | 0.00 | 61 | 1016.1 |
| 20260509182023 | 18 | 181 | 1.6 | 6.4 | 0.00 | 0.00 | 0.00 | 60 | 1016.0 |
| 20260509181502 | 18 | 166 | 1.6 | 6.4 | 0.00 | 0.00 | 0.00 | 59 | 1016.0 |
| 20260509181002 | 18 | 155 | 0.0 | 3.2 | 0.00 | 0.00 | 0.00 | 59 | 1016.1 |
| 20260509180502 | 18 | 158 | 0.0 | 4.8 | 0.00 | 0.00 | 0.00 | 59 | 1016.1 |
| 20260509180002 | 19 | 166 | 0.0 | 4.8 | 0.00 | 0.00 | 0.00 | 59 | 1016.1 |
| 20260509175523 | 19 | 172 | 1.6 | 4.8 | 0.00 | 0.00 | 0.00 | 60 | 1016.0 |
| 20260509175002 | 19 | 158 | 1.6 | 4.8 | 0.00 | 0.00 | 0.00 | 58 | 1016.1 |
| 20260509174503 | 19 | 63 | 0.0 | 1.6 | 0.00 | 0.00 | 0.00 | 59 | 1016.1 |
| 20260509174003 | 19 | 63 | 0.0 | 1.6 | 0.00 | 0.00 | 0.00 | 60 | 1015.9 |
| 20260509173502 | 20 | 63 | 0.0 | 3.2 | 0.00 | 0.00 | 0.00 | 59 | 1016.0 |
| 20260509173002 | 20 | 87 | 1.6 | 4.8 | 0.00 | 0.00 | 0.00 | 58 | 1016.0 |
| 20260509172502 | 20 | 129 | 0.0 | 4.8 | 0.00 | 0.00 | 0.00 | 60 | 1015.9 |
| 20260509172023 | 20 | 146 | 1.6 | 3.2 | 0.00 | 0.00 | 0.00 | 59 | 1015.9 |
| 20260509171523 | 20 | 143 | 1.6 | 4.8 | 0.00 | 0.00 | 0.00 | 57 | 1015.9 |
| 20260509171002 | 20 | 108 | 1.6 | 6.4 | 0.00 | 0.00 | 0.00 | 57 | 1015.9 |
| 20260509170523 | 20 | 89 | 1.6 | 6.4 | 0.00 | 0.00 | 0.00 | 57 | 1015.9 |
| 20260509170002 | 21 | 80 | 1.6 | 4.8 | 0.00 | 0.00 | 0.00 | 58 | 1016.0 |
| 20260509165502 | 21 | 70 | 1.6 | 4.8 | 0.00 | 0.00 | 0.00 | 56 | 1016.0 |
| 20260509165002 | 21 | 65 | 1.6 | 4.8 | 0.00 | 0.00 | 0.00 | 57 | 1016.1 |
| 20260509164502 | 21 | 78 | 1.6 | 3.2 | 0.00 | 0.00 | 0.00 | 57 | 1016.1 |
| 20260509164002 | 21 | 111 | 1.6 | 3.2 | 0.00 | 0.00 | 0.00 | 56 | 1016.2 |
| 20260509163502 | 21 | 164 | 1.6 | 4.8 | 0.00 | 0.00 | 0.00 | 54 | 1016.2 |
| 20260509163002 | 21 | 165 | 1.6 | 4.8 | 0.00 | 0.00 | 0.00 | 55 | 1016.2 |
| 20260509162523 | 21 | 124 | 1.6 | 4.8 | 0.00 | 0.00 | 0.00 | 54 | 1016.1 |
| 20260509162002 | 22 | 128 | 1.6 | 4.8 | 0.00 | 0.00 | 0.00 | 54 | 1016.2 |
| 20260509161502 | 22 | 153 | 1.6 | 11.3 | 0.00 | 0.00 | 0.00 | 52 | 1016.2 |
| 20260509161024 | 22 | 153 | 3.2 | 11.3 | 0.00 | 0.00 | 0.00 | 52 | 1016.2 |
| 20260509160502 | 23 | 140 | 1.6 | 8.0 | 0.00 | 0.00 | 0.00 | 51 | 1016.2 |
| 20260509160023 | 23 | 103 | 1.6 | 9.7 | 0.00 | 0.00 | 0.00 | 51 | 1016.1 |
| 20260509155502 | 23 | 105 | 3.2 | 9.7 | 0.00 | 0.00 | 0.00 | 49 | 1016.1 |
| 20260509155002 | 23 | 130 | 3.2 | 11.3 | 0.00 | 0.00 | 0.00 | 50 | 1016.0 |
| 20260509154502 | 23 | 141 | 3.2 | 11.3 | 0.00 | 0.00 | 0.00 | 50 | 1016.0 |
| 20260509154002 | 23 | 126 | 3.2 | 9.7 | 0.00 | 0.00 | 0.00 | 52 | 1016.0 |
| 20260509153502 | 23 | 118 | 1.6 | 6.4 | 0.00 | 0.00 | 0.00 | 51 | 1015.9 |
| 20260509153023 | 23 | 134 | 1.6 | 6.4 | 0.00 | 0.00 | 0.00 | 52 | 1015.9 |
| 20260509152502 | 24 | 124 | 1.6 | 8.0 | 0.00 | 0.00 | 0.00 | 50 | 1016.0 |
| 20260509152002 | 24 | 91 | 1.6 | 8.0 | 0.00 | 0.00 | 0.00 | 50 | 1016.1 |
| 20260509151502 | 24 | 97 | 3.2 | 8.0 | 0.00 | 0.00 | 0.00 | 51 | 1016.2 |
| 20260509151002 | 24 | 107 | 3.2 | 8.0 | 0.00 | 0.00 | 0.00 | 51 | 1016.2 |
| 20260509150502 | 24 | 130 | 3.2 | 8.0 | 0.00 | 0.00 | 0.00 | 50 | 1016.2 |
| 20260509150002 | 24 | 178 | 3.2 | 8.0 | 0.00 | 0.00 | 0.00 | 50 | 1016.3 |
| 20260509145502 | 25 | 175 | 1.6 | 8.0 | 0.00 | 0.00 | 0.00 | 46 | 1016.4 |
| 20260509145002 | 26 | 105 | 3.2 | 8.0 | 0.00 | 0.00 | 0.00 | 46 | 1016.4 |
| 20260509144502 | 26 | 96 | 3.2 | 6.4 | 0.00 | 0.00 | 0.00 | 47 | 1016.4 |
| 20260509144002 | 26 | 105 | 3.2 | 9.7 | 0.00 | 0.00 | 0.00 | 47 | 1016.4 |
| 20260509143502 | 26 | 110 | 3.2 | 9.7 | 0.00 | 0.00 | 0.00 | 49 | 1016.5 |
| 20260509143024 | 26 | 105 | 3.2 | 9.7 | 0.00 | 0.00 | 0.00 | 48 | 1016.6 |
| 20260509142503 | 26 | 92 | 3.2 | 9.7 | 0.00 | 0.00 | 0.00 | 47 | 1016.7 |
| 20260509142002 | 26 | 98 | 3.2 | 9.7 | 0.00 | 0.00 | 0.00 | 49 | 1016.7 |
| 20260509141502 | 26 | 111 | 3.2 | 11.3 | 0.00 | 0.00 | 0.00 | 49 | 1016.6 |
| 20260509141002 | 26 | 108 | 3.2 | 11.3 | 0.00 | 0.00 | 0.00 | 47 | 1016.7 |
| 20260509140502 | 26 | 94 | 3.2 | 9.7 | 0.00 | 0.00 | 0.00 | 48 | 1016.7 |
| 20260509140002 | 26 | 96 | 3.2 | 16.1 | 0.00 | 0.00 | 0.00 | 49 | 1016.7 |
| 20260509135502 | 26 | 102 | 3.2 | 16.1 | 0.00 | 0.00 | 0.00 | 47 | 1016.8 |
| 20260509135023 | 27 | 98 | 3.2 | 9.7 | 0.00 | 0.00 | 0.00 | 48 | 1016.7 |
| 20260509134523 | 27 | 98 | 4.8 | 9.7 | 0.00 | 0.00 | 0.00 | 50 | 1016.6 |
| 20260509134002 | 27 | 89 | 4.8 | 9.7 | 0.00 | 0.00 | 0.00 | 50 | 1016.5 |
| 20260509133502 | 27 | 89 | 4.8 | 9.7 | 0.00 | 0.00 | 0.00 | 49 | 1016.7 |
| 20260509133023 | 27 | 100 | 4.8 | 11.3 | 0.00 | 0.00 | 0.00 | 51 | 1016.7 |
| 20260509132502 | 26 | 112 | 3.2 | 11.3 | 0.00 | 0.00 | 0.00 | 51 | 1016.5 |
| 20260509132002 | 26 | 115 | 3.2 | 11.3 | 0.00 | 0.00 | 0.00 | 49 | 1016.4 |
| 20260509131502 | 26 | 111 | 3.2 | 11.3 | 0.00 | 0.00 | 0.00 | 49 | 1016.4 |